Tracking 30070 objects as of 16-Jan-2025
HD Live streaming from Space Station
objects crossing your sky now

STARLINK-11187

Track STARLINK-11187 now!
10-day predictions
STARLINK-11187 is classified as:


NORAD ID: 60184
Int'l Code: 2024-124B
Perigee: 366.1 km
Apogee: 367.5 km
Inclination: 53.2 °
Period: 91.7 minutes
Semi major axis: 6737 km
RCS: Unknown
Launch date: July 3, 2024
Source: United States (US)
Launch site: AIR FORCE EASTERN TEST RANGE (AFETR)
Your satellite tracking list
Your tracking list is empty




NASA's NSSDC Master Catalog

Two Line Element Set (TLE):
1 60184U 24124B   25015.36739057  .00001483  00000-0  17088-4 0  9999
2 60184  53.1593  63.3040 0001046  87.6052 272.5085 15.69718992 30832
Source of the keplerian elements: AFSPC